Regional Weather Roundup
Issued by NWS Wakefield, VA

Home | Current Version | Previous Version | Text Only | Print | Product List | Glossary Off
Versions: 1 2 3 4 5 6 7 8 9 10 11 12 13 14 15 16 17 18 19 20 21 22 23 24 25 26 27 28 29 30 31 32 33 34 35 36 37 38 39 40 41 42 43 44 45 46 47 48 49 50

704
ASUS41 KAKQ 300115
RWRAKQ

REGIONAL WEATHER ROUNDUP
NATIONAL WEATHER SERVICE WAKEFIELD VA
900 PM EDT THU SEP 29 2016

Note: "fair" indicates few or no clouds below 12,000 feet with no
significant weather and/or obstructions to visibility. * = Denotes
station may not report precipitation (e.g., rain,snow,etc.),
thunder or fog.

VAZ042-051-052>054-056-300200-
NORTHERN VIRGINIA

CITY           SKY/WX    TMP DP  RH WIND       PRES   REMARKS
WASH NATIONAL  DRIZZLE   66  65  96 NE16      30.16R FOG
DULLES         LGT RAIN  64  62  93 E16       30.16R
FORT BELVOIR   DRIZZLE   64  63  94 VRB3      30.15R
QUANTICO       CLOUDY    68  65  90 E15       30.15R
FREDERICKSBRG* CLOUDY    68  68 100 E8G16     30.12R
STAFFORD*      CLOUDY    67  65  93 E10G23    30.17R
WARRENTON      CLOUDY    67  60  79 E7        30.14R
CULPEPER*      DRIZZLE   67  66  96 E7        30.15R
MANASSAS*      LGT RAIN  66  64  94 E9G22     30.14
LEESBURG*      CLOUDY    64  64 100 NE13G20   30.19R
WINCHESTER     RAIN      63  61  94 E10G20    30.17R
FRONT ROYAL*   CLOUDY    63  63 100 E8        30.14R
LURAY*         DRIZZLE  N/A N/A N/A N8        30.12S
$$

VAZ048-049-060>072-079>083-300200-
CENTRAL AND SOUTH CENTRAL VIRGINIA

CITY           SKY/WX    TMP DP  RH WIND       PRES   REMARKS
RICHMOND       CLOUDY    68  66  93 E8        30.09R FOG
CHESTERFIELD*  CLOUDY    70  54  56 NE7       30.11R
PETERSBURG*    CLOUDY   N/A N/A N/A NE9       30.09R
HANOVER        CLOUDY    67  65  93 VRB6      30.12R FOG
TAPPAHANNOCK*  CLOUDY    68  68 100 NE9       30.11R
QUINTON*       CLOUDY    69  67  96 NE6       30.09R
CHARLOTTSVILLE CLOUDY    68  65  90 E12       30.10R
GORDONSVILLE*  NOT AVBL
ORANGE*          N/A     68  68 100 NE12G23   30.14R
LOUISA*        CLOUDY    70  66  88 E10G18    30.11R
BUMPASS*       CLOUDY    67  65  91 E12G20    30.11R
FARMVILLE*     RAIN      71  69  95 E10G17    30.07R
CREWE*         CLOUDY    69  69 100 E5        30.08R
FORT PICKETT*  CLOUDY    69  66  88 E9G17     30.08R
CHASE CITY*    CLOUDY    71  70  95 E7        30.06R
CLARKSVILLE*   MOCLDY    72  72 100 E9        30.04R
SOUTH HILL*    CLOUDY    71  71  99 CALM      30.12R
LAWRENCEVILLE* CLOUDY    72  70  93 NE6       30.07R
EMPORIA*       CLOUDY    72  70  94 N7        30.08R
$$

VAZ088>098-300200-
SOUTHEAST VIRGINIA

CITY           SKY/WX    TMP DP  RH WIND       PRES   REMARKS
NORFOLK        CLOUDY    74  72  93 E10       30.05R
VIRGINIA BEACH CLOUDY    74  71  91 E7        30.04R
NORFOLK NAVAL  CLOUDY    76  72  87 E9        30.06S
WEST POINT*    CLOUDY    70  69  95 NE3       30.10R
SALUDA*        CLOUDY    71  70  98 E13G24    30.08R
NEWPORT NEWS   CLOUDY    74  72  93 E8        30.06R
LANGLEY AFB    CLOUDY    74  72  93 E13       30.05R
FORT EUSTIS    CLOUDY    73  70  90 NE2       30.04R
WILLIAMSBURG*  CLOUDY    73  70  88 CALM      30.08R
HR EXEC AP*    MOCLDY    73  70  88 CALM      30.08R
FRANKLIN*      CLOUDY    71  69  93 CALM      30.07R
US460-WAKEFLD  CLOUDY    71  68  90 N3        30.08R
$$

VAZ020-022-025-037-045-300200-
WEST CENTRAL AND SOUTHWEST VIRGINIA

CITY           SKY/WX    TMP DP  RH WIND       PRES   REMARKS
STAUNTON*      DRIZZLE   66  63  92 E13G18    30.11R
WAYNESBORO*    CLOUDY    65  64  96 E18G35    30.09R
HOT SPRINGS VA NOT AVBL
LYNCHBURG      CLOUDY    69  68  96 E9        30.06R
DANVILLE       CLOUDY    72  69  90 VRB3      30.03R
SOUTH BOSTON*  CLOUDY    73  71  95 E3        30.04R
MARTINSVILLE   CLOUDY    66  65  96 CALM      30.05R
ROANOKE        LGT RAIN  65  64  97 N6        30.05F
BLACKSBURG     HVY RAIN  64  62  96 CALM      30.09R
DUBLIN*        TSTM      64  63  97 S6G16     30.09R
MARION*        CLOUDY    60  59  96 W6        30.10R
HILLSVILLE*    CLOUDY    60  59  99 NE5       30.07R
RICHLANDS*     LGT RAIN  55  55 100 CALM      30.10R
WISE*          CLOUDY    54  52  94 NW3       30.11S
ABINGDON*      CLOUDY    58  56  94 NW3       30.08R
$$

MDZ021>025-VAZ099-100-300200-
SOUTHERN MARYLAND AND THE DELMARVA PENINSULA

CITY           SKY/WX    TMP DP  RH WIND       PRES   REMARKS
PATUXENT RIVER LGT RAIN  68  64  87 E18G31    30.12R
BAY BRIDGE APT LGT RAIN  64  63  94 MISG      30.16F
LEONARDTOWN    CLOUDY    64  63  94 E8G17     30.14S
DOVER          LGT RAIN  64  64 100 NE24G36   30.20R
GEORGETOWN     RAIN      66  32  28 NE22G32   30.18S
EASTON         LGT RAIN  66  63  88 E18G28    30.19R
CAMBRIDGE      CLOUDY    64  63  94 NE13G20   30.13F
SALISBURY      HVY RAIN  67  66  97 NE18      30.14R FOG
OCEAN CITY     CLOUDY   N/A N/A N/A E28G41    30.12S
WALLOPS ISLAND LGT RAIN  71  32  23 NE28G36   30.09S
ACCOMACK*      LGT RAIN N/A N/A N/A E18G28    30.07F
$$

NCZ012>017-030>032-300200-
NORTH CENTRAL AND EASTERN NORTH CAROLINA

CITY           SKY/WX    TMP DP  RH WIND       PRES   REMARKS
ROANOKE RAPIDS CLOUDY    70  70 100 CALM      30.05R
RALEIGH        MOCLDY    72  70  93 E7        30.03R
ELIZABETH CITY CLOUDY    73  70  90 N5        30.05R
AHOSKIE*       MOCLDY    71  70  97 CALM      30.05S
EDENTON*       CLOUDY    74  74 100 NE3       30.05R
CURRITUCK*     CLOUDY    73  73 100 CALM      30.05S
KILL DEVIL HLS CLOUDY    75  75 100 CALM      30.03R
MANTEO         CLOUDY    74  74 100 CALM      30.04R
CAPE HATTERAS  CLOUDY    78  75  90 SE7       30.04R
TARBORO*       MOCLDY    71  69  95 CALM      30.05R
GOLDSBORO      CLOUDY    74  74 100 E8        30.00S
WASHINGTON     PTCLDY    71  70  98 CALM      30.04R
GREENVILLE     PTCLDY    72  72 100 CALM      30.06R
NEW BERN       CLEAR     72  70  93 NW3       30.05R
WILMINGTON     CLEAR     77  72  84 SE6       30.00R
$$

VAZ048-300200-
ELSEWHERE

CITY           SKY/WX    TMP DP  RH WIND       PRES   REMARKS
HARRISBURG PA  CLOUDY    59  58  96 E12       30.25S FOG
BALTIMORE      CLOUDY    64  61  90 E20G28    30.18F
ANNAPOLIS      RAIN      66  63  90 E16G24    30.16F FOG
ANDREWS AFB    DRIZZLE   64  63  94 E12G21    30.15S
PHILADELPHIA   RAIN      61  58  90 E14G25    30.28S FOG
HENDERSON NC   PTCLDY    69  66  91 E7        30.04R
GREENSBORO     MOCLDY    72  69  90 SE12      30.01R
ROCKY MOUNT    CLOUDY    72  71  97 CALM      30.04R
$$

VAZ100-300200-
MARINE

STATION/POSITION TIME  TEMP    WIND        PRES    WAVE   SWELL
                       AIR SEA DIR/SP/G            HT/PER HT/PER
                 (UTC) (F)     (DEG/KT/KT) (MB)    (FT/S) (FT/S)
BRANDYWINE LGT   0042   66      70/ 30/ 39   N/A
CAPE MAY NJ      0042   65 69   60/ 14/ 24 1021.6F
LEWES DE         0042   67 69   70/ 35/ 40 1021.0F
OCEAN-CITY-INLET 0042   70 72   80/ 19/ 31 1020.4F
WACHAPREAGUE VA  0042   72 74   60/ 23/ 27 1017.9S
THOMAS POINT MD  0100   65 72   80/ 29/ 32 1021.8F
GOOSES REEF MD   0050   69     100/ 25/ 31 1020.1F
COVE POINT MD    0042   67     100/ 25/ 33 1020.3R
SOLOMONS ISLAND  0042   68 74   70/ 20/ 24   N/A
BISHOPS HEAD MD  0042   68 71   60/ 21/ 28 1019.4R
PINEY POINT MD   0036           90/ 17/ 20   N/A
POTOMAC MD       0050   71      80/ 25/ 31 1018.0S
CAMBRIDGE MD     0042   67 72   60/ 20/ 26 1019.6R
LEWISETTA VA     0042   70 72   90/ 28/ 35 1018.5S
RAPPAHANNOCK LGT 0036           50/ 18/ 21 1018.9R
STINGRAY PT      0050   73      20/ 21/ 25 1018.5R
YORK RVR RNG VA  0042   74     100/ 22/ 26 1017.1R
YORKTOWN VA      0042   74 76   80/ 16/ 19 1017.5R
JAMESTOWN VA     0050   72      40/  4/  6   N/A
DOMINION TERM VA 0042   74      30/  3/  6 1017.6S
KIPTOPEKE VA     0042      75   90/  9/ 15   N/A
CHES BAY BRIDGE  0042   75 76   50/ 15/ 16 1017.4R
CAPE HENRY VA    0042   75      70/ 13/ 15   N/A
WILLOUBY STN VA  0042   75      60/ 11/ 12   N/A
CAPE HENRY BUOY  0012      76                N/A     6/ 8   2/11
1ST LANDING BUOY 0050   75     100/ 14/ 16 1017.3R
CAPE CHARLES BUO 0026      76                N/A     6/ 9   2/11
OFFSHORE WE BUOY 0021      75                N/A     8/ 8   2/11
64NM E OF VA BCH 0050   76 75  110/  8/ 10 1016.6R   8/ 9   8/ 9
DUCK PIER NC     0042   76 77   80/  5/  6 1016.7R
44056 DUCK FRF   0041      76                N/A     5/ 9   2/11
OREGON INLET NC  0042   76 78  110/  4/  6 1016.9R
HATTERAS NC      0042   78 80  110/  4/  5 1016.7R
DIAMOND SHLS NC  0050   79 78  170/ 14/ 16 1016.8R   3/ 8   3/ 8
CAPE LOOKOUT NC  0100   80     150/ 12/ 14 1016.3R
$$




USA.gov is the U.S. government's official web portal to all federal, state and local government web resources and services.